This is the latest recevied weather packets stored in our database for station/object OK1KKY-18. If no packets are shown the sender has not sent any weather packets the latest 10 day(s).
| Time | Temp. | Humidity | Pressure | Rain* | Wind** | Luminosity | Snow |
|---|---|---|---|---|---|---|---|
| 1787483831 | 16.67° C | 55% | 1022.9 hPa | - | - | - | - |
| 1787483231 | 16.67° C | 57% | 1022.8 hPa | - | - | - | - |
| 1787482630 | 16.67° C | 56% | 1022.9 hPa | - | - | - | - |
| 1787482031 | 16.11° C | 54% | 1023.1 hPa | - | - | - | - |
| 1787481431 | 16.67° C | 54% | 1023.1 hPa | - | - | - | - |
| 1787480831 | 16.11° C | 55% | 1023 hPa | - | - | - | - |
| 1787480231 | 16.11° C | 61% | 1023.2 hPa | - | - | - | - |
| 1787479631 | 15° C | 64% | 1023.5 hPa | - | - | - | - |
| 1787479031 | 15.56° C | 61% | 1023.5 hPa | - | - | - | - |
| 1787478431 | 16.11° C | 59% | 1023.3 hPa | - | - | - | - |
| 1787477831 | 16.11° C | 63% | 1023.2 hPa | - | - | - | - |
| 1787477233 | 15° C | 66% | 1023.2 hPa | - | - | - | - |
| 1787476634 | 13.89° C | 66% | 1023.4 hPa | - | - | - | - |
| 1787476035 | 14.44° C | 64% | 1023.2 hPa | - | - | - | - |
| 1787475434 | 14.44° C | 66% | 1023.2 hPa | - | - | - | - |
| 1787474834 | 15° C | 66% | 1023.2 hPa | - | - | - | - |
| 1787474235 | 14.44° C | 67% | 1023.1 hPa | - | - | - | - |
| 1787473634 | 14.44° C | 69% | 1023.3 hPa | - | - | - | - |
| 1787473034 | 15° C | 68% | 1023.3 hPa | - | - | - | - |
| 1787472434 | 14.44° C | 71% | 1023 hPa | - | - | - | - |
| 1787471834 | 14.44° C | 75% | 1023 hPa | - | - | - | - |
| 1787471234 | 14.44° C | 71% | 1022.8 hPa | - | - | - | - |
| 1787470635 | 13.89° C | 76% | 1022.8 hPa | - | - | - | - |
| 1787470034 | 13.89° C | 80% | 1022.8 hPa | - | - | - | - |
| 1787469434 | 12.78° C | 82% | 1022.7 hPa | - | - | - | - |
* Rain since midnight (hover to see other rain measurements)
** Current wind speed in m/s (hover to see current wind gust speed)